Voltar ao catálogo

CZ-6A DEB

AtivoPO
NORAD 61087·DEBRIS·🇨🇳 China

Lançado Aug 6, 2024 de Taiyuan Satellite Launch Center

Loading…

Próximas Passagens (próximas 24 horas)

TLE

AtualizadoSource: Space-Track

Época: Sep 14, 2026, 10:02 UTC

1 61087U 24140ND  26257.41839214  .00001343  00000-0  30337-3 0  9997
2 61087  88.9078 251.4441 0092876 322.5961  36.8805 14.53068408108687

Acompanhe CZ-6A DEB em tempo real com AllMySat

Download on the App Store